Dewpoint
66 66 66 67 67 66 65 65 65 64 64 65 64 64 64 64 63 64 65 65 65 64 64 65 66 66 65 65 65 66 66 66 66 66 66 65 65 65 65 65 65 64 64 63 63 64 64 66 67 66 65 64 67 66 65 67 67 68 67 66 66 66 66 66 64 63 64 64 63 63 64 67 69 71 72 71 71 73 72 73 73 73 73 73 74
67 67 67 66 65 64 64 63 63 63 63 63 63 63 63 62 63 64 64 64 64 64 65 65 66 66 66 66 66 66 66 66 65 66 66 66 65 64 64 65 64 64 64 63 63 63 64 63 63 64 66 64 65 66 66 67 66 66 66 64 65 65 67 65 66 64 63 64 64 67 65 65 69 71 70 71 70 71 73 72 71 72 72 74 74
65 67 66 65 65 64 64 63 63 63 63 61 60 59 58 60 62 62 62 61 63 64 64 65 66 67 67 67 67 67 65 64 65 65 66 66 66 65 64 64 64 63 62 63 63 64 63 63 62 62 64 64 64 64 64 67 66 65 67 68 68 67 68 70 67 65 63 63 64 65 66 67 67 68 70 71 72 72 72 73 73 71 73 74 73
58 64 66 65 64 64 64 63 63 60 57 58 58 58 57 58 59 60 61 60 61 63 64 65 66 67 66 67 67 67 65 64 63 64 65 65 65 65 64 64 63 62 61 62 62 62 62 62 62 63 63 64 64 67 67 67 68 68 68 69 67 67 66 68 69 67 65 63 64 64 65 66 68 69 69 70 71 71 72 72 74 74 73 73 74
59 61 63 61 61 63 63 62 61 60 59 55 56 54 53 54 56 58 60 61 61 62 63 64 65 66 65 66 66 66 65 64 64 64 65 66 65 63 63 63 62 61 61 62 61 62 62 61 61 61 62 62 64 62 65 67 68 68 66 66 66 65 66 66 66 66 65 64 63 65 66 67 68 69 70 69 69 71 72 72 72 73 72 70 70
57 59 58 58 61 62 63 62 60 59 58 57 56 57 57 59 58 55 56 55 57 57 60 62 64 65 66 66 66 67 67 66 66 65 65 65 65 63 62 62 60 60 60 61 61 61 60 61 61 61 61 61 64 65 63 65 67 68 66 66 65 66 66 67 66 67 67 66 65 63 65 65 68 68 70 70 69 68 69 71 72 72 72 71 70
64 62 59 56 60 62 61 61 60 57 59 59 59 57 56 54 54 54 55 55 54 56 58 62 64 66 67 66 65 66 66 65 65 66 66 65 64 63 62 62 60 60 60 60 60 60 60 60 60 61 61 61 62 64 63 64 66 67 67 66 66 66 65 64 65 65 65 65 65 64 64 65 67 67 70 70 70 69 68 68 69 70 72 72 71
64 62 61 60 61 61 61 60 60 61 60 61 61 60 59 59 59 59 58 57 53 55 56 60 61 62 62 63 64 65 67 67 66 66 66 65 63 63 63 62 60 60 60 60 59 59 59 59 58 58 59 59 60 62 65 65 66 68 66 66 67 65 64 65 67 66 65 65 65 63 63 63 66 67 68 70 69 69 69 68 66 68 70 71 71
65 62 62 62 63 63 62 61 61 61 61 61 60 60 59 59 59 59 59 58 57 57 59 58 60 61 62 64 65 65 67 67 66 65 64 63 63 62 62 61 60 60 60 60 59 59 58 58 58 57 59 57 56 57 58 58 63 65 68 68 67 65 65 65 66 67 65 66 65 64 63 64 64 65 66 66 66 67 68 68 68 68 71 70 71
65 63 62 62 62 62 61 62 62 61 61 60 60 60 58 58 57 57 57 56 58 59 61 61 60 59 60 63 64 65 66 67 65 64 63 63 62 63 62 62 61 60 61 60 58 56 56 58 58 58 56 57 58 57 56 56 56 61 66 66 68 67 67 67 66 64 65 64 62 62 62 62 62 64 65 66 68 68 66 68 68 68 69 68 70
65 64 62 61 61 61 62 62 61 61 61 60 60 60 59 57 57 58 59 60 60 61 60 60 59 60 61 61 62 62 63 66 64 62 62 62 63 63 62 62 62 61 61 59 58 57 57 58 60 60 60 58 59 58 57 55 56 56 56 58 61 66 65 68 67 67 66 65 62 62 61 62 62 63 64 64 65 67 67 68 68 68 67 66 66
64 63 62 61 61 61 61 61 61 60 60 60 60 60 58 57 57 58 58 59 59 58 59 59 60 61 62 61 60 61 61 63 61 61 62 61 62 64 62 62 62 61 60 58 58 58 59 59 61 60 61 61 60 61 59 56 55 55 55 56 57 57 59 64 66 65 65 64 63 62 62 62 63 63 62 63 65 66 67 68 68 68 67 66 67
63 63 62 61 61 61 62 62 61 60 60 60 60 59 58 57 57 57 57 58 58 59 59 58 60 61 61 61 60 59 59 62 61 60 61 60 60 62 63 63 62 61 61 59 59 60 61 60 59 59 59 58 60 60 58 58 56 55 55 55 55 56 58 58 59 66 67 67 66 64 63 63 63 64 64 64 66 66 67 66 67 68 67 67 69
63 62 62 61 61 61 62 62 61 61 60 61 60 59 58 57 57 56 57 58 59 58 59 59 59 60 59 59 60 60 59 61 60 60 59 59 59 60 63 63 63 62 62 60 60 61 61 60 60 59 60 60 60 58 57 56 57 58 59 61 62 61 57 57 57 57 61 65 65 65 64 65 64 65 66 67 66 66 67 66 67 68 68 68 68
63 62 62 62 62 61 62 62 61 61 61 60 60 59 57 57 57 56 56 56 57 58 57 58 59 59 58 57 57 57 57 59 59 59 58 57 57 57 63 63 62 61 62 62 62 61 60 60 60 60 59 59 59 57 57 56 56 57 58 59 61 63 64 63 62 62 63 64 64 65 66 68 67 67 67 67 68 68 68 68 69 68 68 69 68
62 62 62 62 62 62 62 62 62 62 61 61 59 58 57 57 57 58 59 56 57 56 55 56 56 56 56 56 56 57 56 58 59 58 57 56 56 63 63 63 62 62 62 62 63 62 62 62 61 60 59 60 55 54 54 55 56 56 58 59 61 62 63 60 60 61 62 64 64 64 63 63 61 67 68 66 68 68 68 67 67 68 67 66 65
61 62 62 62 62 61 61 61 62 62 61 60 59 57 56 56 56 58 58 57 54 53 55 54 56 55 56 56 58 59 58 58 57 55 55 55 56 63 63 63 64 63 62 63 63 63 63 62 62 62 61 59 57 54 54 52 56 57 57 58 59 61 63 65 60 58 58 58 58 59 59 59 58 58 59 60 66 66 66 67 64 66 66 65 64
61 62 62 63 62 62 62 62 62 62 61 60 58 56 54 56 56 58 57 56 54 53 54 55 56 57 55 56 54 56 54 56 54 52 53 55 57 64 63 63 63 63 63 63 63 64 63 62 62 61 62 61 56 54 54 53 56 56 57 58 57 58 60 63 64 65 57 57 58 58 59 59 59 59 59 59 59 62 67 65 64 63 63 63 63
61 61 63 63 63 62 61 62 62 61 61 58 57 56 56 57 57 57 57 56 56 57 55 55 54 56 52 52 60 57 57 55 55 53 53 54 60 64 64 63 62 63 64 63 64 64 64 63 61 61 59 58 54 53 53 52 56 57 57 58 58 57 58 60 63 66 66 63 64 63 64 61 64 66 66 58 60 62 66 64 63 66 64 63 63
63 62 62 62 63 63 62 63 63 62 61 60 59 58 58 56 55 54 55 54 53 53 54 55 55 54 52 52 53 56 56 56 57 53 54 54 54 63 63 62 62 62 63 63 62 63 64 64 63 57 56 54 52 51 51 50 54 56 58 58 56 57 58 58 61 64 65 65 64 64 65 65 65 66 66 66 65 66 65 65 65 63 65 62 61
63 64 65 62 61 62 61 62 62 62 61 59 59 58 57 55 55 56 53 52 55 55 56 56 55 55 53 54 54 55 56 56 59 56 55 54 55 56 62 63 62 63 62 62 61 61 63 64 64 59 55 53 52 50 49 49 50 56 59 57 57 56 56 60 63 59 66 65 65 65 64 64 65 65 65 67 65 65 64 64 64 62 62 63 62
66 67 66 64 62 61 61 61 62 61 62 62 62 61 59 58 57 56 53 54 57 58 58 58 56 56 55 54 56 58 61 62 58 58 54 52 50 51 59 62 62 61 61 61 61 61 62 64 64 60 55 53 51 48 48 49 51 57 60 51 50 54 59 62 64 65 66 64 66 66 66 65 64 65 64 67 67 65 63 63 63 62 63 64 63
67 67 66 63 63 62 62 63 63 62 61 62 62 61 59 59 59 59 59 59 58 57 58 58 57 55 55 54 55 56 61 63 61 61 55 53 50 50 50 53 55 60 61 61 61 61 63 63 63 57 54 50 47 47 48 50 51 58 51 50 52 55 58 62 63 64 66 66 67 66 65 66 66 66 67 65 65 65 64 64 64 64 67 69 69
67 66 65 64 63 62 61 62 62 63 63 64 63 62 59 57 57 58 60 57 56 56 56 57 57 54 54 53 55 54 59 61 59 58 59 55 52 50 49 49 50 57 60 59 61 62 62 62 61 53 48 46 46 49 51 51 58 51 50 52 54 57 62 62 62 62 62 64 66 66 66 66 65 67 66 66 64 67 67 65 66 64 66 68 70
66 65 64 63 62 61 61 62 61 61 61 62 62 60 58 57 56 58 59 57 56 57 57 56 56 55 54 54 54 53 56 58 60 62 58 57 54 52 51 51 51 51 60 59 61 61 57 52 50 49 49 49 50 53 56 56 55 54 53 54 57 61 60 60 61 61 61 61 63 65 64 65 67 65 66 66 67 68 70 68 67 67 68 70 72
65 64 63 62 61 61 61 61 60 59 60 59 60 58 57 55 54 56 57 56 57 57 57 54 54 55 54 53 53 53 56 59 61 58 57 56 54 53 52 52 53 53 55 58 55 55 53 52 52 53 55 58 63 63 63 63 57 57 57 58 62 61 60 60 60 60 59 60 60 62 65 67 68 67 67 68 69 69 69 68 68 69 70 70 69
64 64 62 61 61 61 61 58 55 56 61 59 57 56 55 54 54 55 55 54 55 54 55 56 55 53 53 52 53 54 55 56 58 56 56 55 56 55 56 56 54 54 56 57 56 57 57 57 59 57 56 55 57 58 60 61 63 63 63 63 64 62 61 60 60 59 59 59 60 61 62 63 65 70 69 69 69 69 70 69 68 68 69 67 67
62 62 60 59 59 60 61 59 59 56 56 57 53 52 52 53 52 56 56 56 56 55 55 56 55 54 52 52 53 53 54 55 56 53 53 53 53 53 54 55 55 56 55 55 56 56 56 56 59 64 65 61 62 62 63 64 64 63 63 63 63 63 62 61 60 60 60 60 60 61 61 61 60 62 68 67 67 68 69 68 67 67 66 66 66
61 59 60 60 59 60 58 58 58 58 57 57 59 60 60 62 59 60 58 57 57 56 56 54 54 52 51 54 54 54 55 55 53 48 49 45 47 48 51 52 52 53 53 49 53 54 58 53 54 53 55 55 58 59 61 62 63 62 62 62 63 63 62 61 60 60 60 60 60 60 60 61 60 61 61 62 65 67 68 68 69 67 65 66 65
60 57 57 56 54 53 55 52 54 55 53 53 60 56 52 45 52 58 54 51 48 45 47 54 52 53 53 55 55 52 51 52 46 42 41 40 40 40 41 40 40 45 45 46 49 54 55 51 52 53 54 54 55 56 57 61 62 62 62 59 62 62 61 61 61 60 60 60 60 60 59 60 60 60 60 61 62 64 65 64 66 66 65 65 65
57 53 54 53 53 54 52 51 52 57 56 61 59 57 54 54 43 44 48 49 45 42 42 42 44 46 52 53 52 48 48 45 42 40 40 40 40 39 38 40 41 41 42 53 60 57 50 52 51 52 52 51 52 53 55 56 59 61 61 61 61 61 61 61 61 61 60 60 60 60 60 59 58 59 60 60 61 61 62 62 62 63 63 63 63
58 54 53 55 59 57 53 54 54 54 57 57 61 59 56 55 53 44 43 45 43 42 41 41 41 42 43 45 47 53 49 44 41 40 40 40 40 39 39 40 41 42 43 43 58 53 52 51 50 50 50 49 50 52 51 52 54 56 58 58 58 59 59 60 61 62 62 61 61 60 61 60 59 59 59 59 60 60 61 60 60 60 60 60 59
55 54 57 57 56 59 55 55 57 55 56 58 57 60 58 55 54 53 51 42 42 41 41 42 41 42 42 41 40 42 41 41 40 40 40 40 39 39 38 41 42 42 47 52 51 50 50 49 48 49 48 48 48 49 50 49 50 51 53 54 55 57 58 58 60 61 61 61 61 61 61 61 61 60 59 59 60 59 61 61 61 61 60 59 60
59 58 56 56 58 59 58 58 57 58 58 59 58 59 59 58 57 55 53 52 51 47 41 41 42 42 41 41 41 41 41 41 41 40 40 40 40 40 39 55 43 42 46 51 48 49 49 48 47 47 48 47 47 47 48 49 49 49 49 49 50 52 54 55 57 57 59 60 60 61 60 61 61 61 61 60 60 60 60 61 61 60 60 59 59
58 58 57 57 56 57 58 58 57 57 57 60 60 58 61 60 59 57 55 55 55 54 53 51 46 43 49 47 43 42 42 41 41 40 41 41 41 41 41 56 55 50 50 50 49 48 47 47 47 46 46 46 45 46 46 47 47 47 47 48 47 47 50 51 52 53 55 57 58 59 58 58 60 60 61 60 60 59 60 60 59 60 60 60 60
57 57 59 60 58 57 57 58 58 59 61 61 60 59 58 59 58 58 58 57 58 56 54 54 53 46 45 43 45 43 43 43 42 41 41 41 41 43 51 50 50 48 48 48 47 47 47 46 45 45 44 44 45 44 45 45 46 46 46 46 47 46 47 48 48 50 51 54 55 56 55 57 58 59 61 60 60 60 60 60 60 60 60 60 60
56 56 56 57 56 55 56 60 61 61 59 58 58 60 59 59 59 56 55 54 53 52 51 52 53 53 51 51 49 45 44 44 44 42 41 41 42 48 49 48 48 47 46 46 46 46 45 44 45 44 44 42 42 41 42 42 44 46 45 47 47 46 45 46 47 49 49 49 51 55 55 56 57 59 60 59 59 60 60 60 60 60 60 59 58
58 57 58 59 60 59 59 59 57 58 58 58 60 60 58 56 55 54 53 52 51 49 49 50 49 49 48 50 50 52 50 46 44 44 44 42 45 47 47 46 46 45 44 44 44 45 44 44 44 43 44 42 41 41 40 41 41 42 43 45 45 45 43 45 47 48 50 49 49 50 51 54 57 56 57 59 59 59 59 59 60 60 60 60 60
58 58 56 57 58 59 58 58 58 58 58 57 57 57 57 54 54 53 51 49 49 49 48 48 47 48 48 49 50 50 51 49 48 48 48 46 46 45 44 44 43 42 42 42 42 42 42 42 42 43 43 42 42 41 40 39 40 40 42 41 41 42 42 42 43 44 46 47 48 49 50 51 52 54 56 57 57 58 59 60 60 60 59 60 61
57 58 57 57 57 57 58 58 58 58 57 57 56 57 56 55 54 53 52 53 52 53 50 46 46 47 47 49 48 48 48 47 47 46 46 46 45 45 43 42 42 40 41 41 40 40 40 40 41 40 41 41 41 40 39 39 37 38 39 39 38 39 40 40 40 41 43 45 46 47 48 49 50 51 52 53 54 56 57 58 59 60 59 58 59
57 58 57 56 56 56 56 56 57 58 58 58 56 56 55 54 53 54 52 51 48 47 46 45 45 46 46 45 41 43 48 47 46 46 45 45 45 45 44 44 42 41 40 40 40 39 39 38 37 38 38 38 38 38 38 37 35 34 35 36 37 37 37 38 39 40 40 42 44 45 46 48 49 49 49 50 49 52 55 57 55 56 57 57 56
57 56 56 56 56 56 55 55 55 55 55 55 54 53 54 54 53 51 48 48 46 45 44 44 45 45 43 41 40 40 46 46 45 45 44 43 43 42 41 40 40 41 40 39 39 39 38 39 36 36 36 37 36 36 36 35 34 33 33 34 34 35 36 36 37 39 39 40 41 42 44 45 47 48 48 47 49 50 51 52 53 53 54 55 57
56 56 56 56 55 55 55 54 54 53 53 52 52 52 51 50 50 49 46 45 41 41 43 44 45 45 44 43 43 43 45 45 44 43 43 41 40 39 38 37 37 38 38 39 37 38 38 37 37 35 35 35 36 36 34 34 33 32 32 32 33 34 34 35 35 36 37 38 40 42 42 42 44 45 46 47 48 49 49 50 51 52 55 56 55
55 55 55 55 55 54 54 55 54 52 52 52 51 51 52 51 50 49 45 44 43 43 41 42 43 43 44 43 44 44 44 43 44 42 43 41 40 38 38 36 36 35 35 35 35 36 35 35 35 35 36 34 36 37 34 33 32 32 30 31 31 33 32 34 34 35 36 37 38 40 40 41 43 43 44 44 46 46 47 48 49 50 50 51 52
55 56 54 53 53 53 53 51 48 49 49 49 49 49 47 44 44 43 43 42 43 42 41 41 41 42 42 43 44 43 43 43 43 42 41 40 40 38 36 35 35 37 35 35 35 36 34 33 34 35 36 34 35 34 33 33 34 32 30 29 29 30 30 33 34 35 36 37 37 39 39 40 41 42 42 43 43 45 44 46 46 47 48 49 50
52 50 51 49 48 48 47 47 49 48 46 45 44 45 44 43 43 43 42 42 42 40 39 38 38 40 41 42 42 43 43 43 42 41 41 40 39 39 36 35 36 36 35 35 36 36 34 34 34 34 34 35 34 33 31 32 32 32 31 29 29 30 30 33 35 34 35 37 36 37 38 39 40 41 42 42 41 43 44 45 46 45 45 46 47
47 46 45 46 45 47 47 47 47 45 45 44 43 42 42 41 41 41 41 40 39 40 38 37 37 36 37 38 38 40 40 40 40 40 41 42 40 39 38 39 37 35 34 34 35 33 34 33 33 33 34 35 34 34 31 31 30 28 30 28 29 31 31 32 34 34 35 36 37 37 37 37 38 39 40 42 41 41 43 42 43 45 45 45 44
44 44 43 43 43 44 44 44 45 43 44 43 42 42 41 40 39 39 40 39 38 37 36 37 37 36 36 36 37 36 36 36 36 37 37 38 38 38 39 38 36 35 35 34 34 32 32 32 32 33 33 33 34 33 33 31 29 28 26 27 31 31 31 33 34 33 35 37 37 37 37 36 36 37 38 40 40 40 41 41 41 42 43 43 43
43 43 43 42 42 42 43 41 42 41 41 40 39 39 39 38 39 38 38 37 37 37 36 37 36 36 36 36 35 35 35 35 35 37 36 35 36 37 37 37 37 34 33 32 32 33 32 31 32 31 31 33 32 32 32 31 28 27 28 27 29 31 31 32 32 32 33 37 36 35 36 37 38 38 37 38 38 37 38 40 41 40 42 42 41
44 43 43 43 42 41 41 40 39 39 39 38 39 38 38 38 37 37 37 37 36 36 36 36 36 36 36 35 36 35 36 34 34 34 34 35 35 35 35 35 36 34 34 32 32 32 32 31 31 30 31 31 31 32 31 29 28 28 28 28 29 29 30 32 33 33 33 34 36 34 35 36 38 36 35 35 36 36 36 37 38 38 39 40 40
42 42 41 39 39 40 40 39 38 37 37 37 36 38 36 37 36 36 36 36 37 36 36 36 35 35 35 35 35 34 34 34 34 32 32 34 33 33 33 34 35 35 34 33 32 31 31 32 28 30 29 30 29 31 30 29 28 30 29 30 30 30 31 32 32 32 34 34 36 35 34 35 37 37 35 33 34 35 36 35 36 36 36 35 37